Theta_e
329 328 327 325 324 323 322 321 319 317 315 314 314 314 313 313 312 311 310 309 309 309 309 309 310 311 311 311 310 310 310 310 310 309 310 310 310 311 312 312 312 312 313 313 313 313 312 312 311 311 311 310 310 310 310 310 310 309 309 309 309 308 308 308 308 308 308 308 308 308 308 308 308 308 308 307 308 309 309 309 311 312 313 313 315
330 330 328 327 326 324 323 322 320 318 317 316 316 316 315 314 313 312 311 311 312 312 312 313 314 315 315 315 314 314 313 313 313 313 313 313 314 315 316 316 316 316 317 317 317 318 317 317 316 315 315 315 315 315 315 315 315 315 315 314 314 313 313 313 312 312 311 311 310 310 309 308 308 307 307 307 307 307 308 308 309 311 312 313 313
328 329 328 327 326 324 322 321 320 319 318 316 316 317 316 315 315 315 316 316 316 317 317 318 319 319 319 319 318 318 318 317 317 317 317 317 317 318 318 318 318 319 319 319 319 319 319 319 319 318 318 318 318 318 317 317 317 317 318 317 317 317 318 317 318 318 317 317 317 316 315 314 312 311 309 308 308 308 308 309 310 311 313 314 315
323 325 325 325 323 322 321 320 319 318 317 317 318 318 318 318 319 319 320 320 320 321 320 321 321 321 320 320 320 320 319 319 319 319 319 319 319 319 319 319 319 318 318 318 318 318 318 317 317 317 317 317 317 317 317 317 317 318 318 318 318 318 318 318 318 319 319 319 319 319 319 319 318 317 316 314 312 311 311 312 313 314 316 317 318
320 321 321 321 321 320 319 319 318 318 318 318 319 319 320 320 320 321 321 321 321 321 321 321 320 319 318 318 317 316 316 316 317 317 317 317 318 317 317 317 316 316 315 316 316 315 316 316 316 317 317 317 318 318 318 318 318 318 318 318 318 318 318 318 318 318 319 319 319 319 319 319 319 319 319 318 317 316 316 317 317 317 318 320 320
319 319 319 319 319 319 319 319 319 319 319 319 320 320 320 320 320 321 321 321 321 321 321 319 318 316 315 314 313 313 312 312 312 313 313 313 314 314 314 314 314 314 315 316 317 317 317 317 317 317 318 319 319 319 319 319 319 319 319 319 319 319 319 319 319 319 319 319 319 319 319 319 319 319 319 318 319 319 319 319 319 319 320 322 323
318 319 319 319 319 319 319 319 319 319 319 319 319 319 319 320 320 320 321 321 321 321 320 319 317 316 315 314 313 313 312 312 312 312 312 313 313 313 313 314 314 315 316 318 319 320 320 320 320 320 320 320 320 320 320 320 320 319 319 320 320 320 320 320 320 320 320 319 319 319 319 319 319 319 319 319 318 318 318 318 319 320 321 322 323
319 319 319 319 319 319 319 319 319 320 320 320 320 320 320 320 320 321 321 321 321 321 321 319 318 317 317 316 315 315 315 314 314 315 315 315 315 316 316 317 317 318 318 320 321 322 322 322 322 322 322 321 321 321 320 320 320 320 320 319 320 320 320 320 320 320 320 320 320 320 320 320 321 320 320 320 319 319 319 319 319 320 321 323 323
320 319 319 320 319 320 320 320 320 320 321 321 321 321 321 322 322 322 322 322 322 322 321 320 320 319 318 318 318 318 318 318 318 318 318 318 319 319 319 320 320 320 321 321 322 322 323 323 324 324 323 322 321 321 321 321 321 320 320 320 320 319 319 320 320 320 320 320 319 319 319 320 321 322 322 321 321 320 320 320 320 321 321 323 324
322 321 321 321 320 321 321 321 322 322 323 323 323 323 323 323 322 322 322 322 321 321 321 321 321 320 320 320 320 320 320 320 320 320 320 320 321 321 321 321 321 322 322 322 323 323 323 323 323 324 324 323 322 322 322 321 321 321 321 321 320 320 320 320 320 320 319 320 320 319 319 319 320 321 322 322 322 321 321 321 321 321 321 321 323
323 323 323 323 322 322 323 323 323 323 323 322 322 321 321 321 321 321 321 321 321 321 321 321 320 320 321 320 320 320 320 320 320 320 321 321 321 321 322 322 322 323 323 323 323 323 323 323 323 323 323 324 323 323 322 322 322 322 322 322 321 321 320 320 320 320 320 320 320 320 319 319 319 319 321 322 322 322 322 322 321 321 321 321 321
322 322 322 322 322 322 322 322 322 321 321 321 321 322 322 323 323 323 323 323 323 322 322 322 322 322 321 321 321 321 321 321 322 322 322 322 322 322 322 323 323 324 324 325 325 325 325 324 324 323 323 323 323 323 323 323 323 322 322 322 322 321 321 320 320 320 320 320 320 320 320 320 319 319 319 321 322 322 322 322 322 322 322 322 320
323 323 323 323 322 322 322 322 322 322 323 324 325 325 326 326 326 326 326 326 326 325 325 325 325 324 324 323 323 323 324 324 324 325 325 324 324 324 324 324 325 326 326 325 326 325 325 325 325 324 324 323 323 323 323 323 323 322 322 322 322 322 321 321 321 320 320 320 320 320 320 320 320 319 319 320 320 321 322 322 322 322 322 321 320
324 325 324 324 325 324 324 324 325 325 326 326 327 326 326 327 327 327 327 327 327 327 327 327 327 327 327 326 325 325 326 326 326 326 326 326 326 326 326 326 326 326 326 325 324 324 324 323 323 323 323 323 323 323 323 323 323 322 322 322 322 322 322 322 321 321 320 320 320 320 320 320 320 320 320 320 320 321 321 321 321 321 321 321 320
326 326 325 325 325 325 326 326 326 327 327 327 327 327 326 326 327 327 327 327 326 326 327 327 327 327 327 327 327 327 327 326 327 326 326 325 325 326 326 326 326 325 324 323 322 322 322 321 321 321 321 321 321 321 321 322 322 323 322 322 322 322 322 322 322 322 321 322 322 321 321 321 321 320 320 320 320 320 321 321 321 321 321 321 320
329 328 328 327 327 326 326 327 327 327 328 328 327 327 328 328 328 327 327 327 326 326 326 326 327 327 327 327 328 327 327 328 328 327 326 326 325 325 326 325 325 325 324 323 322 322 322 321 321 320 320 320 319 319 319 319 320 321 321 322 322 323 322 322 322 322 322 322 322 322 322 321 321 320 320 321 321 321 321 321 321 321 321 321 321
329 330 329 329 329 329 328 328 328 328 328 329 329 329 329 329 329 328 328 327 327 327 327 326 326 326 327 327 328 329 329 329 328 327 326 326 326 325 325 325 325 324 324 324 324 324 323 323 322 322 321 320 319 319 318 318 319 319 319 319 320 321 322 323 323 322 323 322 322 322 322 322 321 321 321 321 321 321 321 321 321 321 321 321 321
328 329 330 330 330 330 330 330 329 329 329 330 330 330 330 330 330 330 328 327 328 328 327 327 327 326 325 326 327 328 329 328 328 328 327 325 325 325 325 325 325 325 325 325 325 325 325 324 323 321 320 319 319 318 318 319 319 319 319 319 319 319 320 322 323 323 323 323 323 323 323 323 323 323 323 322 321 321 321 322 322 321 322 322 321
326 328 329 330 331 331 331 331 331 331 331 331 330 330 330 330 330 330 329 328 328 328 326 328 328 327 326 326 326 327 327 327 327 327 327 326 325 325 324 324 324 324 324 325 325 325 324 323 321 320 319 319 319 319 319 319 319 319 319 319 320 320 320 320 321 322 323 323 323 323 323 323 323 324 324 323 322 321 321 322 322 322 322 322 321
324 326 328 329 330 331 332 332 332 332 332 331 330 330 329 329 329 329 329 328 328 327 327 328 329 328 327 327 327 327 327 327 327 326 326 326 325 324 324 324 323 324 324 324 323 322 322 321 320 319 319 318 318 319 319 319 319 320 320 320 320 320 320 321 320 321 321 322 322 323 323 324 324 324 324 324 322 321 322 322 322 322 322 322 321
324 324 326 328 330 331 332 332 332 332 332 331 330 329 328 328 328 328 327 327 327 328 327 327 327 328 328 328 327 327 327 327 326 326 325 325 325 325 325 325 325 325 325 324 322 321 321 320 319 318 318 318 318 318 318 319 319 319 320 320 320 320 320 320 320 320 320 321 322 323 323 324 324 325 324 323 323 322 322 322 322 322 322 322 322
327 326 327 328 330 331 331 332 332 332 331 330 328 327 326 326 326 327 327 328 327 327 327 326 326 327 328 328 327 327 327 327 326 326 325 325 326 325 325 325 325 325 324 324 323 322 321 321 320 317 317 317 317 317 318 318 319 319 320 320 320 320 321 321 321 321 322 322 323 323 324 324 324 324 324 323 322 323 324 324 323 323 323 322 322
326 327 328 328 330 331 331 331 331 330 329 327 326 325 325 325 326 327 327 328 327 327 327 327 326 327 327 328 328 327 327 327 326 326 326 325 325 325 325 324 324 325 325 324 323 322 322 321 320 317 317 317 317 317 317 317 318 318 319 320 320 321 321 322 322 323 323 323 323 323 323 323 323 322 322 321 321 322 324 324 324 324 324 323 323
322 324 325 326 327 328 329 329 328 327 327 326 325 325 325 326 327 327 327 327 327 327 327 327 327 326 327 327 328 328 327 327 326 326 326 326 325 325 325 324 324 325 324 324 323 323 322 322 320 317 317 317 316 317 317 317 317 318 319 319 320 320 321 321 321 322 323 323 323 323 322 322 321 320 320 319 320 321 323 324 325 324 324 323 323
316 318 320 321 323 325 326 326 326 325 325 325 325 326 326 326 327 327 327 327 327 327 327 327 327 327 327 327 327 327 327 327 326 326 326 326 325 325 325 324 324 324 324 324 323 323 323 322 321 320 318 316 316 316 317 318 317 318 319 319 320 320 320 320 320 321 321 322 322 323 323 322 321 320 319 318 319 320 322 323 324 324 323 323 323
313 314 315 317 318 320 322 323 324 325 325 325 325 325 326 326 326 327 326 326 326 326 325 326 326 326 326 326 326 326 326 326 326 326 325 325 325 324 324 324 323 323 322 323 323 323 323 321 320 321 320 316 317 318 318 318 318 318 319 319 320 320 321 321 321 321 321 321 321 321 322 322 322 321 319 319 319 321 322 323 323 323 323 322 322
310 311 312 313 314 316 317 319 320 322 323 323 324 324 324 324 324 324 324 324 324 323 324 325 325 325 325 326 326 326 326 325 325 325 324 324 324 324 323 324 323 322 322 322 323 323 323 321 320 322 321 318 317 318 318 318 318 318 319 320 320 320 320 321 322 322 321 320 321 321 320 321 321 321 320 319 320 321 322 323 323 323 323 322 322
310 311 311 312 313 313 314 315 315 317 318 319 319 320 320 320 320 320 320 321 321 321 322 323 323 324 324 325 325 325 324 324 324 323 323 323 323 323 322 323 323 323 322 322 322 322 322 321 320 319 319 320 319 317 317 317 317 318 319 320 321 320 321 321 322 322 321 320 320 320 320 320 319 319 320 319 320 320 321 322 323 323 323 323 322
310 311 311 312 312 312 313 313 313 313 314 314 315 315 315 316 316 316 317 317 318 319 320 320 321 322 322 322 323 323 323 322 322 322 322 322 322 322 322 323 324 324 324 323 322 322 321 321 321 320 318 320 320 318 316 316 316 318 318 319 320 320 320 321 322 322 321 320 320 320 320 320 319 319 319 319 319 319 320 320 321 322 323 323 322
311 311 312 312 312 312 312 312 312 312 312 312 312 312 312 312 312 313 313 314 314 315 316 316 316 317 317 317 318 319 320 321 321 321 321 321 321 321 322 322 323 323 323 323 323 322 322 322 322 322 321 319 317 315 316 316 315 316 318 319 320 319 319 320 322 322 321 320 320 320 320 320 319 319 318 318 318 319 319 319 319 319 322 322 322
310 311 311 311 311 312 311 311 311 311 311 311 311 311 311 311 311 311 311 312 312 313 313 313 313 313 313 313 313 314 315 318 320 321 321 321 321 322 321 321 321 322 322 323 322 322 323 322 322 322 320 317 316 316 315 314 314 315 317 319 318 318 318 319 320 321 321 320 320 320 319 320 320 319 319 318 318 318 318 319 318 318 320 321 321
309 309 310 310 310 310 310 310 310 310 310 309 310 310 310 310 310 311 311 311 312 312 312 312 311 311 311 311 311 311 311 314 317 318 319 320 321 321 321 321 321 321 321 321 322 322 322 322 322 321 319 317 318 319 316 312 313 314 315 316 315 316 317 317 318 320 320 320 320 320 320 320 320 320 319 318 318 317 317 318 318 317 318 319 320
307 308 308 309 309 309 309 309 309 309 309 308 308 309 310 310 311 311 311 311 311 311 311 311 311 311 310 310 310 310 311 312 314 315 316 318 319 320 320 320 320 320 321 321 321 321 320 320 320 319 318 318 320 320 318 313 311 313 313 311 312 314 316 317 317 318 319 320 320 320 321 321 320 320 319 318 318 318 317 317 317 318 318 318 318
304 305 306 307 307 307 308 308 308 308 308 308 308 308 308 309 310 311 311 311 311 311 310 310 309 309 309 310 310 310 311 312 312 313 313 313 315 316 317 317 318 318 319 319 320 320 320 320 319 319 319 320 320 319 318 316 313 314 313 310 310 312 314 316 316 315 317 319 320 321 321 321 321 320 319 319 318 317 317 317 316 317 318 318 318
302 303 303 304 305 306 306 307 307 307 307 307 307 307 307 308 308 308 309 309 309 309 308 307 307 307 307 307 308 309 310 311 311 311 312 312 313 313 314 315 316 316 317 318 318 319 319 318 318 318 318 318 319 319 318 318 317 315 312 311 312 311 310 312 314 313 314 316 319 320 320 321 321 321 320 319 318 318 317 317 316 316 317 318 319
300 301 302 302 303 304 305 305 305 306 306 307 307 307 307 307 307 307 307 307 307 307 307 307 306 306 306 305 306 306 308 309 309 309 310 311 311 312 312 312 313 314 315 316 317 317 317 317 316 316 315 315 316 317 318 318 317 315 313 311 312 311 310 311 312 311 311 313 316 317 317 318 319 320 321 320 320 319 318 317 317 316 316 317 318
297 299 300 301 301 302 303 304 304 305 305 305 306 306 307 307 307 307 306 306 306 306 306 306 306 306 306 306 305 306 307 307 307 307 308 309 309 310 310 310 310 311 312 313 313 314 315 316 316 315 315 315 315 315 316 316 316 316 315 313 310 310 310 311 310 309 309 310 312 312 312 315 317 319 320 321 320 320 319 318 317 317 316 316 317
296 296 297 299 300 301 301 302 302 303 304 304 304 305 305 306 306 306 306 306 306 305 305 305 305 305 305 305 305 305 306 306 306 306 307 308 309 309 309 309 309 310 309 310 310 311 313 314 314 314 314 315 315 313 314 316 315 315 315 315 312 310 311 311 309 309 310 310 311 310 310 313 315 316 318 320 320 320 320 319 318 317 316 316 316
295 295 296 297 298 299 300 301 301 302 303 303 303 303 304 304 305 305 306 306 306 305 305 305 305 305 305 305 305 305 305 305 305 306 306 307 308 308 308 309 308 308 309 309 309 310 311 312 312 312 312 313 313 312 313 314 314 314 315 316 314 312 313 313 311 309 311 311 310 310 310 311 313 314 316 316 317 319 321 319 318 317 316 316 316
293 294 294 295 296 297 298 299 300 301 301 302 302 302 302 303 303 304 304 305 305 305 305 305 305 305 305 305 305 305 305 305 306 306 306 307 307 307 308 308 308 308 308 308 308 309 310 311 311 311 311 311 312 311 312 313 313 314 314 314 314 312 313 314 312 311 313 313 312 311 310 310 312 314 315 313 313 317 319 319 318 318 318 317 316
290 291 292 293 294 295 296 297 298 300 300 300 301 301 301 302 302 302 303 303 304 304 305 305 305 305 305 305 305 305 305 306 306 306 306 307 307 307 307 307 308 308 307 307 308 308 308 309 310 309 310 310 309 309 311 312 312 313 313 313 314 313 314 315 314 313 314 314 313 311 309 310 312 313 313 311 312 315 317 317 317 318 318 318 317
289 289 290 291 292 293 294 296 297 298 299 300 300 300 300 300 301 301 302 302 302 303 303 303 304 304 304 304 304 305 305 305 305 306 306 307 307 307 307 307 307 307 307 307 307 308 307 308 308 308 308 309 308 308 309 309 310 311 311 312 313 313 313 313 312 310 312 313 312 310 309 310 312 312 311 311 312 314 314 314 316 317 318 318 317
288 288 288 289 290 291 292 293 295 296 297 299 299 299 299 299 300 300 301 301 301 302 302 302 302 303 303 303 303 303 303 304 304 305 305 306 306 307 307 307 307 307 307 307 307 307 307 307 307 307 307 308 307 308 308 307 308 309 310 311 311 311 311 311 311 310 310 312 312 311 310 310 312 313 311 311 311 311 311 311 314 317 318 318 318
287 287 288 288 289 290 291 291 293 294 295 297 298 298 299 298 299 299 300 300 301 301 301 302 302 302 302 302 303 303 303 303 303 304 304 305 305 306 306 306 306 306 306 307 307 307 307 307 307 307 307 307 307 307 307 307 308 308 308 309 309 310 310 310 310 310 309 310 311 311 311 309 312 312 312 310 310 311 311 311 312 315 316 316 317
286 286 287 288 288 289 290 291 291 292 294 295 296 297 297 298 297 298 299 299 300 300 301 301 301 302 302 302 302 302 302 303 303 303 304 304 304 305 305 306 306 306 306 306 306 306 306 306 306 306 307 306 306 307 306 306 306 306 306 306 307 307 308 308 309 309 309 309 310 310 310 308 309 311 311 308 308 310 311 310 310 311 312 313 315
285 285 286 287 288 288 289 290 290 291 292 293 294 295 296 296 296 297 297 298 299 299 300 300 301 301 301 302 302 302 302 302 303 303 303 304 304 304 304 305 305 305 305 305 305 305 305 305 305 305 306 306 305 306 306 305 305 305 305 305 305 305 306 307 307 308 307 308 309 310 310 309 307 310 310 308 307 310 310 310 310 310 311 313 315
284 285 286 286 286 287 287 287 288 289 290 291 292 293 294 294 294 295 295 296 297 298 299 300 300 300 301 301 301 302 302 302 302 302 303 303 303 303 303 304 304 304 305 305 305 305 305 304 304 304 305 305 304 305 305 305 304 303 303 304 304 305 305 305 306 306 306 306 307 308 309 309 307 309 309 308 308 309 309 309 310 310 311 312 313
284 284 285 286 286 285 285 285 286 287 288 289 290 290 291 291 291 292 293 294 295 296 297 298 298 299 299 300 300 301 301 301 301 301 301 301 302 302 302 303 303 303 304 303 303 304 304 303 303 303 304 304 304 304 304 304 304 303 302 302 304 304 302 302 304 305 306 306 306 306 307 308 307 307 308 308 308 309 309 308 309 309 310 310 311
283 284 284 285 285 285 284 284 285 285 286 287 287 288 289 288 288 289 289 290 292 293 294 295 296 297 298 298 299 299 300 300 299 299 299 299 300 300 300 301 302 302 302 302 302 302 302 302 302 303 303 303 303 303 303 303 303 302 301 301 303 303 300 300 303 304 305 305 305 305 305 306 306 307 307 308 308 309 309 308 308 309 309 309 310
282 283 283 284 284 284 284 284 284 284 285 285 286 286 286 286 286 286 286 287 288 290 291 292 293 294 295 296 296 297 297 298 297 297 297 297 297 298 298 299 300 301 301 300 300 301 301 300 301 301 301 302 302 302 302 302 302 301 299 300 301 301 299 298 300 301 303 304 304 305 304 304 305 305 306 307 307 308 308 308 308 309 309 309 310
281 282 283 283 283 284 284 284 284 284 285 285 285 285 285 285 285 285 285 285 285 286 288 289 290 292 292 293 294 294 295 295 295 295 295 295 295 296 296 296 298 299 299 298 298 299 299 299 300 300 300 300 300 301 301 301 301 300 299 299 299 299 298 298 298 299 299 302 303 304 302 302 304 304 305 306 307 307 307 308 308 309 309 309 310
Wind_Speed
21 21 20 20 21 20 20 21 21 21 21 21 21 21 21 21 22 22 22 22 23 23 23 23 23 23 22 22 21 22 22 23 23 24 24 25 25 24 23 22 22 22 22 23 23 24 24 25 25 26 26 26 26 26 26 27 27 28 28 29 29 30 30 30 31 31 31 30 30 30 30 30 30 30 30 29 29 28 28 27 25 25 26 29 31
22 22 22 22 21 22 22 21 22 22 22 22 21 21 22 21 21 22 21 22 22 22 23 23 23 23 23 22 22 23 24 24 25 25 26 26 26 26 25 24 23 23 23 24 24 24 25 25 25 26 26 26 26 26 27 27 27 27 28 28 28 29 29 30 30 30 30 29 29 28 28 28 29 29 30 30 29 29 28 28 27 26 25 26 28
22 22 22 23 22 23 23 22 23 22 22 22 21 20 21 20 20 20 20 21 22 22 23 24 24 24 25 25 25 25 26 27 27 28 28 28 28 28 28 27 25 24 24 25 25 25 25 25 25 25 26 26 26 26 26 26 27 27 27 27 27 28 28 28 28 28 28 28 27 27 27 27 27 27 28 28 28 29 28 28 28 27 27 25 25
21 21 22 22 23 23 22 22 22 21 21 20 19 19 19 19 19 20 20 21 23 23 24 25 26 26 27 27 27 28 28 29 30 30 30 30 30 29 29 28 27 25 24 24 24 24 24 24 24 25 25 25 25 25 26 26 26 26 27 26 27 27 28 28 27 27 27 26 26 26 26 26 25 25 25 26 27 28 28 28 28 28 28 27 26
20 20 21 21 22 22 21 21 21 21 20 19 18 18 19 19 19 20 22 23 24 25 25 26 27 28 28 28 28 28 29 30 30 31 31 31 30 30 29 28 27 26 24 23 23 23 24 23 23 24 24 24 24 24 25 25 25 26 26 26 27 27 27 28 27 27 27 27 26 26 26 26 26 25 25 25 26 27 28 28 28 28 28 28 27
19 20 20 21 22 22 22 21 21 21 21 20 19 19 20 21 20 22 23 24 25 26 26 27 27 28 28 27 27 27 28 29 29 30 30 29 29 29 28 28 27 26 25 24 23 23 23 23 23 23 24 24 24 24 25 25 26 26 27 27 28 28 28 28 29 28 28 28 28 27 27 27 27 26 26 26 26 27 27 28 28 28 28 28 28
20 20 20 21 22 22 22 22 21 21 21 21 21 21 22 23 22 23 24 25 26 26 27 27 27 27 27 27 27 26 27 27 27 28 28 27 27 27 28 28 27 26 26 26 26 25 24 24 24 25 25 25 25 25 25 25 26 26 27 28 28 29 29 29 29 29 29 28 28 28 28 28 28 28 28 27 27 27 27 27 28 28 28 28 28
21 21 21 21 22 22 22 22 22 22 22 23 24 23 23 24 24 25 25 26 27 27 27 27 27 27 26 27 27 27 28 28 27 27 27 27 26 27 28 28 28 27 27 27 27 27 27 26 26 26 26 26 26 25 25 25 25 26 26 27 28 28 28 28 28 28 27 27 26 27 27 27 28 28 28 28 28 28 28 28 27 28 27 28 28
22 22 22 22 23 23 23 23 23 23 24 25 26 25 25 26 26 26 26 26 27 27 27 27 28 28 28 28 28 29 30 30 28 28 29 28 28 28 29 29 29 28 28 28 29 29 29 28 27 27 26 26 26 26 25 25 25 25 25 26 26 26 27 27 27 26 26 26 26 26 26 26 26 27 27 27 27 27 27 27 27 27 27 27 28
23 23 24 24 24 24 24 24 24 24 25 26 27 27 26 26 27 26 26 26 27 26 26 27 28 29 30 30 30 30 31 31 31 30 30 30 30 29 30 30 30 30 30 29 29 30 30 29 29 28 27 26 26 26 26 26 26 26 26 26 26 26 26 26 27 27 27 26 26 26 26 26 26 26 26 26 26 26 26 26 26 26 26 26 26
23 23 24 25 25 25 25 25 25 25 26 26 26 26 26 25 25 25 25 26 27 26 26 26 27 29 30 31 31 32 33 32 33 33 33 33 32 31 31 31 31 30 30 29 30 30 30 29 28 28 28 27 27 27 28 28 28 28 28 27 26 26 27 27 27 28 28 28 28 28 27 27 26 26 25 25 25 24 24 24 25 25 25 25 24
22 22 23 24 24 25 25 25 24 25 25 25 24 24 24 24 24 24 25 25 26 26 25 26 27 29 31 32 33 33 33 33 34 34 34 34 33 32 32 32 31 30 29 28 28 28 28 27 27 27 27 27 27 27 28 29 29 29 29 28 27 27 27 28 28 28 29 29 29 29 29 28 27 27 26 26 26 25 25 25 26 25 25 25 24
22 22 23 23 24 25 25 25 24 24 24 23 23 22 22 23 24 24 25 25 25 25 25 26 27 29 30 31 33 33 33 34 34 33 33 33 33 32 32 31 30 29 27 27 26 26 26 26 26 26 26 26 27 27 27 27 28 28 28 28 28 28 28 28 28 29 29 30 30 31 31 30 30 29 28 28 27 27 27 27 27 27 26 26 25
23 23 23 24 25 25 25 24 24 24 23 22 22 22 21 21 22 24 24 24 25 23 24 26 27 27 27 30 34 34 33 34 34 33 32 31 30 29 29 28 27 27 26 26 26 25 26 26 26 26 27 27 28 29 30 29 29 28 28 29 29 29 29 29 29 30 30 31 31 32 32 32 32 31 30 29 29 29 29 28 28 28 28 27 27
23 24 25 25 26 26 25 25 24 24 24 23 23 22 21 21 22 23 23 24 25 24 24 26 26 24 22 24 28 29 31 33 31 31 31 29 28 28 28 27 27 27 27 27 27 27 27 28 28 29 29 30 31 33 34 34 34 33 32 32 32 32 32 32 32 33 33 33 33 34 34 34 34 34 33 32 31 31 30 30 29 29 29 28 28
23 23 24 25 26 27 27 27 26 25 24 24 24 23 23 23 23 23 24 24 25 25 25 26 26 23 19 18 20 20 24 26 27 31 33 31 31 31 29 28 28 28 28 28 29 30 31 31 32 32 33 34 35 36 37 38 38 38 37 37 37 37 37 37 37 37 37 36 36 36 36 36 36 35 35 35 34 33 33 32 31 30 30 29 28
22 23 22 23 25 26 27 27 27 26 25 24 24 24 25 25 25 25 25 26 26 26 26 28 28 26 23 21 18 14 14 20 26 31 33 32 32 32 30 29 29 30 31 32 32 33 34 35 36 36 36 37 37 38 39 39 40 39 40 40 40 40 41 41 41 40 40 40 39 38 37 36 36 36 36 36 36 35 35 34 32 32 31 30 29
22 23 22 23 24 25 26 26 27 27 26 25 25 26 27 27 27 27 27 27 27 27 27 29 29 29 29 27 24 20 20 23 23 25 31 35 33 32 32 33 33 34 34 35 36 37 38 39 39 38 38 39 38 39 39 39 39 39 40 40 40 40 41 41 41 41 41 41 41 40 39 38 37 37 37 37 37 37 36 35 34 32 32 31 30
23 23 23 24 24 25 25 26 26 26 26 27 27 27 28 28 29 29 29 28 29 30 30 28 28 31 32 31 30 29 28 27 23 22 27 35 35 31 33 36 37 37 38 38 39 39 40 41 40 39 39 38 38 38 38 37 37 37 37 37 37 38 38 39 39 39 40 40 40 40 40 39 39 39 39 38 37 37 37 36 35 33 32 31 31
25 24 24 24 24 24 24 25 26 26 26 27 28 28 28 29 29 30 30 29 30 31 31 29 28 31 32 32 32 31 30 29 28 26 24 31 38 36 33 34 34 33 34 36 38 39 40 40 40 38 36 35 35 35 34 33 34 34 34 34 34 34 35 35 35 36 37 38 38 39 39 39 39 39 38 38 37 37 37 36 35 34 32 31 31
25 25 25 24 24 24 23 25 26 27 27 27 27 27 28 28 29 29 30 29 29 30 31 31 30 30 29 30 30 30 31 30 30 30 29 31 37 39 35 31 29 29 28 32 37 38 37 37 37 35 32 30 30 29 29 28 29 30 30 29 29 30 31 31 32 32 33 34 36 37 37 38 37 38 38 37 37 37 36 36 35 34 32 31 31
21 23 24 24 23 23 23 24 25 25 26 27 27 27 27 28 28 28 29 29 29 30 31 31 31 30 29 28 27 28 30 30 30 31 31 31 33 37 38 34 32 32 28 29 32 32 30 30 32 32 29 29 28 26 26 25 25 25 24 24 24 25 26 26 27 27 28 30 31 33 34 35 35 36 36 36 36 36 35 34 34 33 32 31 30
22 22 23 22 22 22 23 24 24 24 25 26 27 26 27 27 27 27 28 29 29 30 31 31 31 31 31 29 28 27 28 30 31 31 31 33 34 35 37 35 33 31 25 24 26 26 26 26 28 30 28 28 28 26 25 24 23 21 19 19 19 20 20 21 21 22 24 26 27 29 31 32 34 34 35 35 35 35 33 33 33 32 30 29 30
22 23 23 24 23 22 22 22 23 24 24 25 26 26 26 26 27 27 28 29 29 29 30 31 32 32 32 32 30 28 27 29 30 29 30 32 34 36 37 36 35 32 24 21 22 22 23 25 27 29 29 27 25 25 25 23 21 19 17 17 18 18 19 19 20 21 23 25 26 28 30 31 32 33 33 33 33 34 33 32 32 32 31 30 29
19 20 22 23 24 23 22 21 22 22 23 24 25 25 25 26 26 27 28 28 29 30 31 31 31 32 32 32 32 30 28 28 28 28 28 29 32 36 36 35 35 34 27 23 23 22 22 24 26 27 28 26 24 24 23 22 21 19 19 19 19 20 20 20 21 22 23 24 25 28 30 32 32 32 32 32 31 31 32 32 33 32 31 31 30
18 18 19 20 22 23 23 23 22 22 23 23 24 25 26 26 26 26 28 29 30 30 31 32 31 31 30 30 32 32 30 29 29 29 29 30 32 33 34 34 34 35 32 28 27 26 25 26 27 26 26 26 25 24 23 23 23 22 21 22 22 21 22 22 22 23 23 23 24 26 28 31 32 32 32 31 30 30 30 31 33 33 32 32 32
18 18 18 18 19 20 21 22 23 23 24 24 25 26 26 27 27 28 29 30 30 31 31 31 31 32 31 30 30 30 29 29 30 31 31 32 33 32 32 33 35 35 34 31 28 27 26 26 26 24 26 29 27 25 26 26 26 25 24 24 24 22 21 22 22 24 25 25 24 25 26 28 30 31 32 31 30 30 30 30 31 32 33 33 32
17 17 18 18 18 18 19 19 21 22 23 24 25 26 27 28 29 30 31 31 31 31 30 30 30 30 29 27 27 28 29 29 30 31 31 33 34 33 31 32 34 36 36 33 31 30 28 27 27 27 29 31 28 27 30 30 28 27 27 26 25 24 22 21 22 24 26 27 25 24 25 26 28 29 30 31 31 30 31 31 32 33 34 34 33
17 17 17 17 17 17 17 17 18 18 20 21 22 23 24 26 28 29 30 30 30 30 29 29 28 27 27 26 27 28 28 29 31 31 31 32 33 32 32 32 32 34 35 35 36 35 31 30 31 30 27 26 29 32 33 32 30 29 29 28 26 26 24 22 23 24 26 27 26 25 25 25 26 27 29 30 31 31 31 32 33 33 34 34 35
17 15 16 16 16 16 17 17 17 17 18 19 20 21 22 24 25 26 27 28 28 29 29 29 28 27 27 27 27 27 27 27 27 28 28 30 31 31 32 32 31 32 34 36 39 38 33 32 32 27 24 26 31 35 34 32 31 30 29 28 28 27 26 24 24 25 27 28 27 26 25 24 24 25 26 28 30 31 31 32 33 33 32 33 33
19 17 16 16 16 16 16 17 17 18 18 19 20 21 23 24 24 25 25 25 26 27 26 26 25 25 25 26 26 26 26 24 23 24 26 27 27 28 29 29 30 32 33 34 38 37 33 34 34 28 29 33 32 32 34 33 32 31 29 29 30 29 27 26 27 27 28 29 28 27 26 25 25 25 25 26 27 30 32 32 33 32 32 32 32
22 21 19 18 18 17 17 17 17 18 19 19 20 21 22 24 24 24 24 24 25 25 24 24 24 24 25 25 26 26 25 24 23 23 24 24 24 25 26 27 28 29 29 30 36 39 36 35 35 31 31 33 30 28 32 34 33 32 31 31 31 30 28 28 27 27 27 28 28 27 27 26 27 27 26 26 25 27 30 32 34 33 32 32 33
26 25 24 22 21 21 20 19 19 19 19 19 19 20 21 22 23 24 24 25 25 26 26 25 25 25 26 26 26 26 25 24 24 23 23 23 23 24 25 25 26 27 26 28 32 38 38 34 33 33 30 29 29 27 29 34 35 33 33 34 33 31 30 29 28 28 27 27 27 27 27 27 28 28 28 27 26 26 28 30 33 35 35 34 34
29 29 28 27 26 25 24 23 22 21 21 20 20 20 21 22 23 24 24 25 26 27 27 27 27 26 26 26 26 26 25 25 24 24 24 24 24 24 24 24 26 26 26 27 30 33 36 33 31 33 30 27 27 27 27 32 34 33 34 38 37 34 32 31 31 30 28 28 28 27 27 28 29 29 29 29 29 28 28 29 30 33 36 37 37
33 32 32 31 30 30 29 28 27 26 24 23 23 23 23 23 24 25 25 26 26 27 27 27 27 27 27 27 27 27 27 27 27 27 27 27 25 25 26 25 25 26 25 26 28 31 35 36 33 32 32 31 29 28 26 28 31 35 38 38 37 37 37 36 34 33 31 30 28 28 29 29 30 30 31 31 30 30 29 29 30 31 34 37 39
35 35 35 34 33 33 33 32 32 31 29 28 26 26 26 26 27 27 27 27 27 27 27 27 27 27 28 28 28 28 28 29 30 30 30 31 29 29 30 30 29 29 28 26 27 29 33 37 37 34 33 34 32 28 26 28 32 36 38 37 36 38 39 37 36 37 35 32 30 30 30 30 31 31 32 32 32 32 31 30 31 32 33 35 37
38 37 36 36 36 35 35 35 34 34 33 32 31 30 29 29 29 29 29 29 29 29 29 29 29 29 29 29 29 29 30 31 31 31 32 32 32 32 33 33 33 33 32 32 31 31 31 34 38 37 33 33 34 33 31 31 33 34 34 36 37 37 38 37 37 39 38 34 31 31 31 30 30 31 31 32 33 33 33 31 31 33 34 35 36
39 39 38 37 37 37 36 36 36 36 36 35 35 34 33 33 32 32 32 32 32 31 31 31 31 30 31 31 31 31 32 32 32 32 33 33 33 34 34 35 35 34 35 36 35 33 32 33 36 38 36 34 36 37 34 30 30 33 34 34 35 37 37 37 37 38 39 36 34 33 31 31 31 31 31 32 33 34 34 33 33 34 35 36 37
39 40 40 39 38 38 38 37 36 36 37 37 37 36 36 36 35 35 34 34 34 33 33 33 33 32 32 32 33 33 33 34 34 34 34 34 35 35 36 36 36 36 36 36 36 34 33 33 35 38 39 38 37 37 35 31 31 33 33 31 34 36 35 35 37 38 38 37 37 36 34 32 32 32 31 32 33 34 35 35 36 35 35 36 37
39 40 40 40 40 40 39 39 38 37 37 37 37 37 38 38 38 37 37 36 36 36 35 35 34 34 34 34 34 35 35 36 36 36 36 36 37 37 37 36 36 37 37 37 36 34 32 32 34 36 38 38 38 38 36 33 32 32 31 30 33 35 34 34 36 36 35 35 36 38 38 36 34 32 31 33 34 34 34 35 37 37 36 37 38
40 41 41 41 41 41 41 40 40 39 38 37 37 37 37 38 39 39 39 39 38 38 37 37 36 36 36 36 36 36 36 36 36 37 37 37 37 38 38 37 36 37 37 37 37 36 34 33 34 37 37 38 41 41 37 35 33 30 29 29 30 32 33 33 35 37 36 34 36 39 40 40 37 34 34 35 34 32 32 34 37 37 36 36 38
41 42 42 42 42 42 41 42 41 41 40 39 38 37 36 37 38 39 40 40 40 39 39 38 37 37 37 37 37 37 37 37 37 36 36 36 36 37 38 38 37 37 38 38 38 37 37 36 37 38 38 39 43 41 39 40 37 30 29 30 30 31 33 34 38 42 39 35 37 41 43 41 39 38 39 38 36 35 34 35 36 35 35 34 35
42 42 42 42 43 43 42 42 42 42 41 40 39 38 37 37 37 38 39 40 40 40 40 40 39 38 38 38 38 38 38 38 38 37 37 36 36 36 36 37 37 37 38 38 38 38 37 37 38 39 39 41 43 42 41 42 38 32 30 30 29 31 32 33 37 42 41 36 34 39 45 45 41 41 43 43 43 42 39 37 36 33 33 33 33
43 42 42 42 42 43 43 43 43 42 42 41 39 39 38 38 38 38 39 39 40 40 41 41 41 40 39 39 39 39 39 38 38 38 38 38 38 37 37 36 37 37 37 38 38 38 38 38 39 40 40 42 42 42 42 41 36 34 33 31 29 30 32 32 34 38 41 39 35 38 46 49 45 43 47 50 49 46 43 41 39 35 34 36 35
44 43 42 42 41 41 42 43 43 43 42 41 39 38 38 38 37 38 38 39 39 40 40 41 41 41 41 40 39 39 39 39 39 39 39 39 39 38 38 38 38 38 37 37 38 38 38 38 39 41 42 42 42 42 43 41 38 38 38 37 34 32 32 33 34 37 41 41 37 38 45 51 49 46 49 53 53 50 48 48 45 40 38 37 36
43 42 42 41 40 40 40 41 42 43 43 42 40 38 36 36 35 36 37 38 39 40 40 40 41 41 41 40 40 39 39 38 38 38 38 38 38 39 39 39 39 39 39 39 39 38 38 38 38 41 42 42 42 43 44 42 39 38 39 38 37 35 35 35 36 40 44 43 39 38 44 52 53 49 51 55 55 53 53 53 52 48 42 38 37
41 41 40 40 40 39 38 37 38 41 42 41 40 38 36 34 33 33 34 36 38 39 40 40 40 40 40 40 40 39 39 38 38 37 37 37 37 38 39 39 39 39 39 39 39 39 39 37 37 39 41 41 41 41 43 42 39 37 37 38 40 41 41 42 43 47 50 49 42 37 42 52 54 51 52 55 54 54 54 54 54 51 47 43 42
39 39 39 39 39 38 36 35 35 37 40 39 37 37 35 33 31 31 32 34 35 37 38 38 38 38 38 38 38 39 38 38 37 36 36 36 36 37 38 38 38 38 38 38 38 38 38 37 36 38 40 41 40 40 41 41 39 38 36 37 41 42 40 41 46 50 52 51 46 40 41 50 53 50 51 52 51 51 53 53 53 51 48 46 44
39 39 38 38 38 37 35 35 34 34 36 37 36 35 34 30 28 29 30 32 34 35 35 36 36 36 36 36 36 37 37 36 35 34 33 34 34 35 36 37 38 38 38 37 37 37 36 35 36 37 39 39 40 40 39 39 39 36 32 34 40 39 34 36 43 49 49 50 49 44 41 45 48 48 48 49 49 50 52 53 53 51 49 47 43
38 38 38 38 38 37 36 36 35 34 35 36 35 34 31 27 24 25 27 29 32 33 33 33 34 34 35 35 34 34 34 33 32 32 31 31 32 33 34 35 37 39 38 36 35 36 35 34 35 37 37 38 38 38 38 38 37 33 30 33 37 35 32 34 40 44 46 49 51 46 40 42 46 46 47 48 49 51 53 53 52 50 50 49 45
36 37 37 36 37 37 36 36 35 35 34 33 33 33 29 25 22 23 25 27 30 31 31 31 32 33 33 33 33 32 31 30 29 29 29 28 29 31 31 32 35 38 37 33 33 34 34 35 35 35 36 36 36 36 37 37 36 33 30 31 32 31 31 33 35 36 39 47 51 44 36 37 40 41 41 43 45 47 49 50 50 48 47 47 45
Wind_Direction
257 259 259 257 258 258 260 261 262 265 265 266 268 270 272 273 275 275 275 276 276 277 278 279 280 280 281 281 282 282 282 281 279 279 278 278 278 277 276 275 275 276 276 276 277 278 278 279 280 281 281 281 281 281 281 281 281 282 282 282 283 282 282 282 282 282 282 282 282 281 281 280 280 281 282 283 282 281 280 279 278 271 262 256 252
254 257 257 257 258 258 258 259 260 262 264 264 266 270 271 272 273 273 274 274 275 277 278 279 280 281 282 282 282 282 282 282 281 281 280 280 280 280 280 278 277 277 278 279 278 279 279 280 281 282 282 283 283 283 283 284 283 283 283 283 283 283 283 283 283 283 283 283 283 283 283 281 280 280 280 281 281 280 279 278 278 276 272 264 256
254 256 257 257 257 258 258 259 260 261 262 264 267 269 270 270 271 273 275 277 278 278 279 281 281 282 283 283 282 282 281 282 282 282 282 282 282 282 282 281 280 278 278 279 280 280 280 280 281 281 282 283 284 284 285 285 285 284 284 284 284 284 284 284 284 284 284 284 284 284 283 282 281 280 279 278 278 278 277 277 276 276 275 271 263
256 256 256 258 258 259 260 260 262 264 264 266 269 270 270 270 272 276 278 279 280 281 282 283 282 283 283 283 283 282 281 281 281 281 282 282 282 282 283 283 283 282 280 279 280 280 281 281 281 282 282 283 284 284 285 285 285 284 284 284 285 285 284 285 285 285 286 285 285 285 284 284 282 281 279 277 276 276 275 275 275 274 273 273 269
256 256 256 258 259 259 261 263 264 265 266 268 270 270 270 271 272 275 276 278 280 282 282 282 283 283 282 281 281 281 281 280 280 281 281 282 282 283 284 284 284 284 285 282 280 280 281 281 281 282 282 283 283 283 283 283 283 283 283 283 283 283 283 284 284 285 286 287 287 287 287 286 285 283 280 277 275 274 274 274 274 273 271 271 271
255 255 256 257 257 257 259 260 261 263 265 267 267 267 267 269 269 270 272 274 276 278 280 281 282 283 283 283 281 281 281 280 281 282 282 282 284 285 285 285 285 286 286 285 283 281 281 282 282 282 282 282 282 281 281 281 281 281 281 281 280 280 280 280 281 282 284 285 286 287 287 286 285 284 282 279 275 273 273 273 272 271 270 270 270
258 256 255 258 259 259 260 260 262 266 268 269 267 267 267 268 269 270 272 273 275 276 278 280 282 282 284 285 284 283 282 281 282 282 283 285 285 285 285 286 286 287 287 286 286 285 284 284 283 283 282 282 280 279 279 279 279 279 279 279 279 278 278 278 279 280 281 282 282 283 284 284 284 282 281 278 276 274 272 271 270 269 269 268 268
264 262 259 261 262 262 264 265 267 270 271 272 271 270 271 273 273 274 276 277 279 280 282 283 283 282 283 283 284 284 283 283 283 283 285 286 286 285 286 286 287 287 286 286 286 286 286 285 284 283 282 281 279 278 277 277 277 277 277 277 277 277 278 278 279 279 280 280 280 281 282 282 282 281 280 279 277 275 273 271 269 268 268 268 268
266 265 263 263 263 263 266 267 269 271 272 272 273 273 274 275 276 277 279 280 282 283 285 285 285 284 284 284 285 285 285 285 285 286 286 286 285 285 286 286 286 286 286 286 286 286 286 285 284 283 282 280 279 277 276 276 276 277 278 278 278 278 278 279 279 279 278 279 280 281 282 282 282 282 281 280 278 276 274 272 270 269 268 267 268
264 265 265 265 265 265 267 269 270 271 273 274 275 276 276 276 278 279 280 280 280 280 281 283 284 286 286 286 287 286 286 287 287 287 286 285 285 285 285 285 285 285 285 286 285 285 285 285 284 283 281 279 278 276 275 276 276 277 278 279 279 280 279 280 280 279 278 278 280 282 283 284 283 283 282 281 279 276 274 273 271 270 270 269 269
268 268 268 268 268 269 270 271 272 273 273 274 275 277 278 279 280 280 279 279 279 280 281 283 285 285 286 285 285 285 285 287 287 286 285 284 284 283 283 283 283 284 284 285 284 283 284 284 284 283 281 280 278 276 275 275 276 276 276 277 278 279 279 279 280 280 278 277 278 280 281 283 283 283 282 280 278 275 273 273 273 272 271 270 271
271 270 270 270 270 271 271 271 271 272 273 275 278 280 281 281 281 281 281 281 281 283 285 285 285 284 284 284 284 283 283 283 283 283 283 283 283 282 281 281 281 282 282 281 281 281 282 283 283 283 283 282 280 278 277 276 276 275 274 274 275 276 276 277 278 278 277 276 277 278 279 280 281 282 280 278 276 274 274 274 274 273 271 271 273
272 270 269 269 270 270 270 271 271 272 273 278 281 282 283 283 283 283 282 283 283 285 286 285 284 285 286 285 283 282 282 282 281 281 282 282 282 281 280 281 281 280 278 277 277 279 280 281 282 283 284 284 283 281 279 277 277 275 274 273 273 273 274 275 276 276 276 275 275 276 277 278 279 279 279 277 275 274 273 273 273 273 272 272 273
275 273 272 271 271 271 271 272 273 274 276 279 281 282 283 284 285 285 284 284 284 284 284 283 284 287 290 289 286 285 283 282 282 282 282 282 281 281 279 279 278 276 275 276 277 278 280 282 283 284 286 286 285 284 282 280 278 276 274 273 272 272 273 273 274 274 274 275 276 277 277 277 277 277 277 277 275 274 273 272 272 271 271 271 272
281 280 279 278 276 275 275 275 276 276 278 278 279 281 283 285 286 286 286 285 283 282 281 281 283 286 287 286 288 291 288 286 286 284 283 282 281 280 278 276 274 274 275 276 278 280 282 284 285 287 288 288 288 286 285 283 281 279 277 275 274 273 273 273 274 274 273 274 276 277 277 277 276 276 277 277 276 275 273 272 272 272 271 271 272
286 284 282 281 281 279 278 278 278 279 279 278 277 278 281 284 284 285 285 284 282 283 282 281 280 279 276 276 283 289 289 288 286 284 284 283 282 280 278 276 274 273 273 275 279 282 284 286 287 289 289 290 289 288 287 286 284 282 280 278 276 275 275 274 275 274 273 273 276 277 276 275 275 275 276 276 276 274 273 272 272 272 271 271 272
285 284 282 280 281 281 281 282 281 280 279 279 279 280 281 282 283 284 283 281 281 282 281 279 278 275 271 269 270 274 278 283 287 287 284 282 280 280 280 277 275 274 276 278 281 283 286 287 288 289 290 290 289 288 287 286 285 283 281 279 277 276 275 275 274 274 272 273 275 275 273 273 273 274 275 275 275 274 273 272 272 272 271 271 273
282 282 281 279 279 281 283 283 283 282 282 282 282 282 281 281 281 280 279 278 278 276 274 275 276 275 272 267 264 263 268 278 287 288 284 283 282 282 281 278 277 278 279 280 282 284 286 287 288 288 288 287 286 285 284 283 282 281 280 278 277 275 274 274 273 272 272 272 272 272 271 271 272 273 274 274 274 273 272 271 271 271 271 271 272
279 280 280 280 280 281 281 281 281 281 281 280 279 279 279 279 278 278 277 276 274 272 270 271 273 274 274 273 271 271 272 275 277 281 286 287 285 282 281 281 281 282 282 281 282 284 286 288 288 287 287 286 284 282 281 280 279 278 278 277 277 276 275 274 273 272 271 270 270 270 269 269 270 271 272 273 272 272 271 270 269 269 269 269 271
274 275 277 278 279 279 280 280 278 277 277 276 276 276 277 276 276 277 276 275 273 272 272 271 270 272 275 277 277 277 276 275 273 273 277 282 284 284 283 284 286 286 285 285 286 288 288 289 288 287 287 285 283 280 279 279 278 278 278 278 277 277 276 275 274 273 271 270 269 269 268 268 269 269 270 271 271 270 269 268 267 267 267 267 269
275 273 273 274 275 275 277 278 277 276 277 276 275 275 274 274 273 274 274 273 272 272 271 270 269 271 272 274 276 277 276 275 274 272 270 272 280 285 286 287 287 285 286 288 291 291 290 290 290 291 289 285 282 281 280 280 281 281 281 281 280 278 278 277 276 275 273 271 270 269 269 269 268 268 268 268 268 268 267 266 265 265 265 266 268
279 277 274 274 275 275 275 276 277 277 276 275 274 272 271 271 270 270 270 270 268 268 267 267 267 268 268 268 270 272 273 273 271 272 271 270 274 280 286 288 288 287 287 289 291 290 289 288 290 293 292 286 285 285 285 285 286 286 285 284 282 281 281 280 279 277 273 271 270 269 269 269 268 267 266 266 266 265 264 264 264 263 263 264 266
285 282 278 275 275 277 277 276 276 275 274 273 273 271 270 270 268 267 266 266 266 266 267 267 266 266 266 265 264 264 266 269 271 272 271 271 273 277 283 286 287 287 287 287 287 287 286 285 288 292 291 289 289 288 288 291 291 291 289 285 284 285 287 285 281 275 271 270 270 270 269 268 268 266 265 265 264 263 261 260 261 261 261 261 263
299 294 289 284 279 277 276 276 275 274 273 272 272 271 269 268 267 266 265 265 265 266 267 268 267 266 266 265 265 263 262 265 270 271 271 272 274 276 280 284 285 285 286 286 284 281 281 283 288 292 292 292 293 292 293 297 297 296 294 289 288 291 293 290 285 278 274 274 273 272 271 270 269 268 266 265 263 262 259 257 257 258 259 259 260
320 313 306 299 291 285 278 274 272 272 271 270 270 269 268 267 266 266 265 265 266 266 267 268 269 269 268 268 267 265 262 262 264 265 267 271 272 274 277 280 282 284 286 286 284 284 282 283 288 291 292 294 296 296 297 300 302 303 301 298 297 298 298 295 292 288 283 279 277 274 273 272 272 271 270 267 264 261 259 256 255 255 256 257 258
327 324 318 311 304 297 290 283 276 273 270 268 267 266 265 265 265 265 265 266 267 268 269 269 270 270 269 268 268 268 267 266 266 265 266 269 270 272 276 279 280 283 285 286 287 287 284 287 292 290 292 299 301 299 301 302 302 302 304 304 302 301 301 300 300 299 294 286 279 275 275 275 275 273 271 270 266 262 258 256 256 257 256 256 258
323 323 321 318 314 308 302 296 289 284 278 275 272 270 268 268 267 268 268 269 269 269 269 269 270 271 270 268 269 270 269 268 269 269 270 271 271 273 275 278 280 282 284 285 285 284 283 290 294 290 293 301 302 302 304 304 302 303 306 305 302 301 301 301 303 303 300 294 285 278 277 278 279 276 272 270 269 264 259 256 256 258 258 258 260
318 318 319 319 318 315 311 306 301 295 288 284 281 278 277 275 273 272 272 271 270 269 268 268 267 268 267 265 264 266 268 269 269 269 270 271 272 274 274 274 277 280 283 284 283 282 283 287 290 291 295 299 298 301 303 302 302 305 307 305 302 301 301 301 300 299 298 296 289 283 281 281 281 281 275 270 268 266 263 258 255 256 256 258 261
315 315 315 315 314 313 312 310 307 301 296 291 287 284 281 279 277 276 275 273 272 270 268 266 265 265 265 264 263 264 266 268 269 269 270 271 273 275 275 273 272 273 277 280 281 282 284 287 289 292 297 296 294 297 299 298 300 303 304 303 301 301 301 300 297 295 294 295 292 287 284 283 283 283 280 274 269 266 265 263 259 256 255 257 259
314 310 309 308 309 308 308 307 305 302 299 296 292 289 286 284 282 281 280 278 275 273 272 271 270 270 270 269 268 268 267 267 267 268 269 270 271 272 271 270 269 269 272 275 277 279 281 284 285 287 288 288 290 294 295 296 298 301 301 300 300 301 300 296 294 292 291 293 293 289 287 285 284 283 282 279 274 269 266 265 263 259 255 255 257
315 311 305 302 301 300 300 301 300 299 298 296 294 291 289 287 286 284 283 281 278 276 275 276 277 277 277 276 275 274 273 270 267 266 267 267 268 268 269 269 268 268 268 270 274 276 276 279 281 281 283 286 289 292 294 295 297 299 299 298 300 300 297 292 290 289 289 291 292 290 289 289 289 287 284 282 279 274 269 265 264 261 255 254 255
318 314 309 303 298 294 291 290 290 290 291 292 291 290 288 288 286 284 281 278 276 276 277 279 281 282 282 282 281 280 278 275 271 269 268 266 266 266 268 270 269 268 267 268 272 274 274 276 279 279 283 288 290 290 292 294 297 298 297 296 297 296 293 291 290 288 288 291 291 290 289 289 289 287 285 282 281 279 274 269 266 262 258 254 252
319 315 312 308 303 298 293 288 285 282 282 282 283 284 284 285 284 283 280 278 276 277 278 279 281 282 282 282 282 281 279 275 274 273 270 269 267 266 266 267 269 268 267 267 270 275 278 278 278 279 283 287 288 287 288 292 296 297 296 296 294 291 290 291 292 289 287 288 289 289 288 287 286 285 284 283 282 282 281 275 269 264 260 257 253
321 318 315 312 309 305 301 296 290 285 281 278 276 276 276 277 278 278 278 278 279 279 280 282 283 283 283 283 284 283 282 279 278 277 276 275 272 269 268 267 267 267 266 267 269 274 279 280 280 283 285 283 281 282 284 288 291 291 292 295 295 292 292 291 290 289 286 285 285 285 285 285 285 284 283 282 282 282 283 282 275 267 261 259 257
324 321 318 315 312 309 307 303 299 293 287 282 278 276 274 273 272 272 272 274 276 278 280 282 284 285 285 286 287 288 287 287 286 285 283 282 278 275 275 272 271 271 270 268 269 271 276 279 279 279 280 279 278 280 282 282 284 286 289 293 294 295 296 294 290 287 287 286 285 283 282 280 280 279 280 280 281 282 282 282 280 274 266 260 258
322 322 320 318 314 311 308 306 303 299 295 289 283 278 276 274 272 272 271 271 272 275 277 279 281 282 282 283 285 286 286 286 286 287 287 286 284 282 281 280 278 276 275 271 270 271 274 279 280 278 279 281 280 277 276 275 279 283 286 290 292 292 294 294 293 292 293 291 287 283 282 280 277 276 277 278 279 279 280 281 281 279 273 266 260
319 318 318 318 316 314 311 307 304 302 299 295 290 284 279 276 273 272 271 271 272 272 274 275 277 278 279 280 281 282 282 282 283 284 285 285 285 284 283 283 281 280 278 276 274 273 272 275 280 282 282 282 280 279 278 278 281 282 284 288 291 291 292 294 294 295 296 295 290 286 285 282 278 276 275 275 276 278 280 282 281 278 276 271 264
315 315 314 314 314 313 312 310 307 303 300 298 295 291 286 281 276 273 271 270 269 270 270 271 272 274 275 276 278 278 278 279 279 280 281 282 282 282 281 282 281 280 280 279 278 276 274 273 277 280 280 278 280 283 282 281 282 282 283 288 290 291 293 294 294 294 296 297 295 292 290 283 279 280 277 272 273 274 275 278 280 278 275 271 266
311 311 311 310 310 310 310 309 308 305 302 299 297 295 292 288 283 279 275 271 269 268 268 268 269 269 270 271 272 273 274 275 276 276 277 278 278 278 279 279 279 279 279 279 279 277 276 276 276 278 280 280 281 283 284 284 283 282 283 284 286 289 290 291 292 293 295 296 295 294 292 286 283 283 280 274 272 270 269 273 277 277 275 271 266
307 307 307 306 306 306 306 306 305 305 302 300 298 296 294 292 289 285 282 278 274 270 268 268 268 268 268 268 268 269 270 271 272 273 273 274 275 275 275 276 276 277 277 277 277 276 275 275 276 277 279 281 282 283 284 285 283 282 283 283 285 288 290 291 292 292 293 294 293 294 293 291 289 286 282 280 275 269 269 273 276 276 275 272 267
306 305 304 303 302 302 302 302 301 301 300 299 298 296 294 292 290 289 286 284 281 278 274 271 270 269 270 270 270 270 270 269 270 271 271 272 272 272 273 273 273 274 274 274 274 274 274 272 274 276 277 279 282 283 283 282 281 282 285 285 287 291 292 291 290 289 290 290 292 293 292 291 293 292 287 284 277 272 273 275 274 273 273 272 268
307 305 304 302 301 300 299 299 298 298 297 297 296 295 294 292 290 289 288 286 285 284 281 278 275 273 273 273 273 273 273 273 273 273 273 272 272 272 272 272 271 271 272 272 272 273 272 271 272 275 274 276 280 282 281 283 284 283 283 282 283 285 286 285 286 288 289 289 291 293 290 290 293 292 288 284 279 278 279 277 275 274 274 273 270
309 307 305 304 303 301 299 297 297 296 295 295 294 294 293 292 290 288 287 286 286 285 284 283 280 278 277 276 276 276 276 276 276 275 275 274 273 272 271 271 270 270 269 270 270 270 269 269 271 273 271 273 279 281 282 285 286 283 282 282 282 283 284 285 286 287 288 289 291 291 289 289 291 289 286 283 282 282 282 277 274 272 272 273 272
313 310 308 306 305 303 302 299 297 295 294 293 293 293 292 292 291 289 286 285 284 284 283 283 282 281 280 279 279 279 279 278 278 278 276 275 274 272 271 269 268 267 267 267 268 268 268 267 269 271 271 273 277 280 282 283 282 280 280 280 280 281 282 281 280 281 285 287 288 287 286 287 287 285 285 285 284 284 282 278 274 270 268 270 271
317 314 312 310 307 305 304 302 299 297 294 293 293 293 291 291 291 289 287 285 283 282 282 281 281 281 281 280 280 279 279 279 280 279 278 277 276 273 271 269 267 266 266 265 265 265 265 266 267 270 273 274 275 278 282 281 277 278 279 279 279 280 279 277 277 279 282 284 283 282 282 283 283 281 281 284 284 284 283 282 280 276 272 269 268
317 317 315 313 311 309 307 305 303 300 298 297 296 294 292 291 290 289 287 285 283 281 281 280 280 280 280 280 280 279 279 279 279 280 279 278 277 275 273 271 269 268 267 266 266 265 265 264 265 268 273 273 273 277 280 279 276 277 278 278 279 278 275 274 273 275 278 278 277 278 278 280 282 279 278 282 284 283 284 284 283 281 277 271 267
317 317 316 315 314 312 310 308 306 303 302 302 301 298 296 293 291 289 287 285 283 282 281 280 279 279 278 279 279 278 278 278 278 279 279 278 277 275 274 272 271 270 269 268 268 268 268 268 267 269 272 272 273 275 276 276 276 276 275 275 276 275 273 273 272 274 277 276 274 273 273 277 280 278 277 281 282 281 282 282 282 282 280 276 273
318 317 316 315 313 312 309 308 307 306 305 306 305 303 301 299 296 293 290 288 285 283 282 282 281 279 279 278 279 278 278 278 279 279 279 278 277 276 275 274 273 271 270 270 270 270 271 272 272 272 272 272 273 274 274 274 275 277 278 277 277 276 276 276 276 277 278 278 276 271 268 272 277 278 278 280 281 281 281 280 279 281 281 280 278
318 317 316 314 312 311 308 306 305 305 305 307 308 307 306 305 302 299 296 293 290 287 286 285 284 283 281 279 278 278 278 279 279 280 280 279 278 278 277 276 275 274 273 273 273 273 274 275 275 274 273 273 274 275 276 276 277 279 279 277 277 278 277 278 278 278 279 279 279 276 271 272 275 277 278 280 280 280 279 279 279 280 281 280 279
315 315 314 313 311 310 308 306 305 304 305 306 308 310 310 308 306 305 302 299 295 292 291 290 288 286 284 283 281 280 280 280 280 280 280 279 279 278 278 279 278 276 276 277 278 277 277 277 276 275 276 277 277 278 279 279 279 279 277 276 279 279 276 274 276 279 281 280 280 279 274 272 274 275 276 278 278 277 277 278 279 280 280 280 279
314 313 313 311 310 309 307 305 305 305 304 304 306 310 312 308 307 308 307 304 300 298 297 294 290 287 286 286 286 285 284 283 282 281 280 280 280 279 280 280 279 278 280 282 282 280 279 278 278 277 277 278 278 279 279 279 279 279 276 276 278 276 272 272 274 276 278 279 279 280 277 275 277 277 276 276 277 277 278 279 280 279 279 279 279